Weather History for Centralia, IL

Change the Weather History Date:

Tuesday, December 4, 2012

  Actual Average (KSLO) Record (KSLO)
Temperature  
Mean Temperature 51 °F -  
Max Temperature 63 °F 45 °F 68 °F (2001)
Min Temperature 38 °F 28 °F 7 °F (1991)
Degree Days  
Heating Degree Days 14    
Growing Degree Days 1 (Base 50)    
Moisture  
Dew Point 47 °F    
Average Humidity 81    
Maximum Humidity 93    
Minimum Humidity 62    
Precipitation  
Precipitation 0.05 in - - ()
Sea Level Pressure  
Sea Level Pressure 30.13 in    
Wind  
Wind Speed 8 mph (NW)    
Max Wind Speed 15 mph    
Max Gust Speed 17 mph    
Visibility 10 miles    
Events Rain    
Averages and records for this station are not official NWS values.
T = Trace of Precipitation, MM = Missing Value Source: NWS Daily Summary

Daily Weather History Graph

Daily Weather History Graph

Search for Another Location

Airport:

Trip Planner

Search our weather history database for the weather conditions in past years. The results will help you decide how hot, cold, wet, or windy it might be!

Date:

Astronomy

Dec. 04, 2012 Rise Set
Actual Time 6:58 AM CST 4:35 PM CST
Civil Twilight 6:28 AM CST 5:04 PM CST
Nautical Twilight 5:55 AM CST 5:37 PM CST
Astronomical Twilight 5:23 AM CST 6:09 PM CST
Moon 10:19 PM CST (12/4) 10:54 AM CST (12/4)
Length of Visible Light 10h 35m
Length of Day
9h 37m
Waning Gibbous, 69% of the Moon is Illuminated
Dec 4
Waning Gibbous
Dec 6
Last Quarter
Dec 13
New
Dec 19
First Quarter
Dec 28
Full

Hourly Weather History & Observations

Time (CST) Temp. Windchill Dew Point Humidity Pressure Visibility Wind Dir Wind Speed Gust Speed Precip Events Conditions
12:15 AM 63.3 °F - 54.0 °F 71% 29.98 in 10.0 mi South 10.4 mph - N/A   Clear
12:35 AM 62.8 °F - 54.1 °F 73% 29.98 in 10.0 mi South 11.5 mph - N/A   Clear
12:55 AM 62.6 °F - 54.1 °F 74% 29.98 in 10.0 mi South 10.4 mph - N/A   Clear
1:15 AM 62.2 °F - 54.3 °F 75% 29.98 in 10.0 mi South 10.4 mph - N/A   Clear
1:35 AM 61.9 °F - 54.5 °F 77% 29.98 in 10.0 mi South 10.4 mph - N/A   Clear
1:55 AM 61.7 °F - 54.7 °F 78% 29.98 in 10.0 mi South 9.2 mph - N/A   Clear
2:15 AM 61.7 °F - 54.7 °F 78% 29.98 in 10.0 mi South 8.1 mph - N/A   Clear
2:35 AM 60.8 °F - 55.4 °F 82% 29.98 in 10.0 mi South 9.2 mph - N/A   Clear
2:55 AM 61.7 °F - 55.0 °F 79% 29.99 in 10.0 mi South 10.4 mph - N/A   Scattered Clouds
3:15 AM 61.9 °F - 55.4 °F 79% 29.98 in 10.0 mi South 11.5 mph - N/A   Mostly Cloudy
3:35 AM 61.7 °F - 55.4 °F 80% 29.99 in 10.0 mi South 9.2 mph - N/A   Scattered Clouds
3:55 AM 61.7 °F - 55.6 °F 80% 29.99 in 10.0 mi South 8.1 mph - N/A   Mostly Cloudy
4:15 AM 61.7 °F - 55.8 °F 81% 29.99 in 10.0 mi SW 4.6 mph - N/A   Overcast
4:35 AM 61.3 °F - 55.9 °F 82% 29.99 in 10.0 mi South 5.8 mph - N/A   Overcast
4:55 AM 61.2 °F - 55.9 °F 83% 30.00 in 10.0 mi WSW 4.6 mph - N/A Rain Rain
5:15 AM 60.8 °F - 56.7 °F 86% 30.01 in 7.0 mi SW 5.8 mph - N/A Rain Light Rain
5:35 AM 59.9 °F - 56.3 °F 88% 30.01 in 10.0 mi SSW 5.8 mph - N/A   Overcast
5:55 AM 59.9 °F - 56.7 °F 89% 30.02 in 10.0 mi SW 5.8 mph - N/A   Overcast
6:15 AM 59.9 °F - 56.7 °F 89% 30.03 in 10.0 mi SW 5.8 mph - 0.01 in Rain Light Rain
6:35 AM 59.7 °F - 57.0 °F 91% 30.05 in 10.0 mi West 15.0 mph - 0.01 in   Overcast
6:55 AM 56.3 °F - 53.6 °F 91% 30.05 in 5.0 mi NW 11.5 mph 17.3 mph 0.01 in Rain Light Rain
7:15 AM 55.4 °F - 52.7 °F 91% 30.07 in 7.0 mi NW 11.5 mph - N/A Rain Light Rain
7:35 AM 54.5 °F - 51.6 °F 90% 30.07 in 7.0 mi NNW 10.4 mph - N/A   Overcast
7:55 AM 54.5 °F - 51.3 °F 89% 30.08 in 7.0 mi NNW 11.5 mph - N/A   Overcast
8:15 AM 54.3 °F - 51.1 °F 89% 30.08 in 7.0 mi North 10.4 mph - N/A   Overcast
8:55 AM 53.8 °F - 50.4 °F 88% 30.10 in 10.0 mi NNW 6.9 mph - N/A Rain Light Rain
9:15 AM 53.1 °F - 50.2 °F 90% 30.12 in 7.0 mi NW 9.2 mph - 0.01 in Rain Light Rain
9:35 AM 52.3 °F - 49.3 °F 89% 30.13 in 7.0 mi NW 12.7 mph - 0.01 in   Light Drizzle
9:55 AM 52.2 °F - 49.1 °F 89% 30.14 in 10.0 mi NNW 11.5 mph - 0.01 in   Overcast
10:15 AM 52.3 °F - 49.1 °F 89% 30.14 in 10.0 mi NNW 8.1 mph - N/A   Overcast
10:35 AM 52.7 °F - 49.3 °F 88% 30.13 in 10.0 mi NNW 10.4 mph - N/A   Overcast
10:55 AM 52.7 °F - 49.1 °F 88% 30.13 in 10.0 mi NNW 6.9 mph - N/A   Overcast
11:15 AM 52.7 °F - 48.9 °F 87% 30.13 in 10.0 mi NNW 9.2 mph - N/A Rain Light Rain
11:35 AM 52.9 °F - 49.1 °F 87% 30.12 in 10.0 mi NNW 8.1 mph - N/A   Overcast
11:55 AM 53.1 °F - 49.1 °F 86% 30.11 in 10.0 mi North 9.2 mph - N/A   Overcast
12:15 PM 53.4 °F - 48.6 °F 84% 30.11 in 10.0 mi North 8.1 mph - N/A   Overcast
12:35 PM 53.8 °F - 48.6 °F 82% 30.11 in 10.0 mi North 11.5 mph - N/A   Mostly Cloudy
12:55 PM 54.0 °F - 48.2 °F 81% 30.13 in 10.0 mi NNW 12.7 mph - N/A   Overcast
1:15 PM 54.3 °F - 47.8 °F 79% 30.12 in 10.0 mi North 8.1 mph - N/A   Overcast
1:35 PM 55.4 °F - 47.3 °F 74% 30.12 in 10.0 mi North 10.4 mph - N/A   Overcast
1:55 PM 55.4 °F - 44.8 °F 67% 30.13 in 10.0 mi North 10.4 mph - N/A   Overcast
2:15 PM 55.4 °F - 44.4 °F 67% 30.14 in 10.0 mi NNW 12.7 mph - N/A   Mostly Cloudy
2:35 PM 55.6 °F - 43.5 °F 64% 30.16 in 10.0 mi NNW 8.1 mph - N/A   Mostly Cloudy
2:55 PM 55.6 °F - 42.6 °F 62% 30.16 in 10.0 mi North 6.9 mph - N/A   Mostly Cloudy
3:15 PM 55.4 °F - 43.0 °F 63% 30.17 in 10.0 mi NNW 6.9 mph - N/A   Mostly Cloudy
3:35 PM 54.9 °F - 43.9 °F 66% 30.18 in 10.0 mi NNW 5.8 mph - N/A   Scattered Clouds
3:55 PM 54.0 °F - 43.9 °F 69% 30.20 in 10.0 mi NNW 5.8 mph - N/A   Clear
4:15 PM 54.0 °F - 43.3 °F 67% 30.21 in 10.0 mi NNW 6.9 mph - N/A   Clear
4:35 PM 52.9 °F - 42.4 °F 68% 30.23 in - NNW 5.8 mph - 0.03 in   Clear
4:55 PM 51.6 °F - 41.9 °F 69% 30.23 in 10.0 mi NNW 8.1 mph - 0.03 in   Clear
5:15 PM 50.4 °F - 41.5 °F 72% 30.22 in 10.0 mi NNW 6.9 mph - N/A   Clear
5:35 PM 49.8 °F - 41.5 °F 73% 30.22 in 10.0 mi NNW 8.1 mph - N/A   Clear
5:55 PM 48.4 °F - 40.8 °F 75% 30.23 in 10.0 mi NNW 6.9 mph - N/A   Clear
6:15 PM 48.6 °F - 40.6 °F 74% 30.24 in 10.0 mi NNW 5.8 mph - N/A   Clear
6:35 PM 48.4 °F - 40.1 °F 73% 30.24 in 10.0 mi NNW 3.5 mph - N/A   Clear
6:55 PM 47.5 °F - 40.1 °F 76% 30.24 in 10.0 mi NW 3.5 mph - N/A   Clear
7:15 PM 46.9 °F - 40.5 °F 78% 30.25 in 10.0 mi Calm Calm - N/A   Clear
7:35 PM 46.8 °F - 40.5 °F 79% 30.26 in 10.0 mi Calm Calm - N/A   Clear
7:55 PM 44.8 °F - 39.2 °F 81% 30.27 in 10.0 mi Calm Calm - N/A   Clear
8:15 PM 44.4 °F - 39.6 °F 83% 30.27 in 10.0 mi Calm Calm - N/A   Clear
8:35 PM 42.6 °F - 38.5 °F 85% 30.27 in 10.0 mi Calm Calm - N/A   Clear
8:55 PM 41.4 °F - 38.7 °F 90% 30.27 in 10.0 mi Calm Calm - N/A   Clear
9:15 PM 41.9 °F - 39.0 °F 90% 30.27 in 10.0 mi Calm Calm - N/A   Clear
9:35 PM 40.3 °F - 37.9 °F 91% 30.28 in 10.0 mi Calm Calm - N/A   Clear
9:55 PM 40.8 °F - 38.3 °F 91% 30.28 in 10.0 mi Calm Calm - N/A   Clear
10:15 PM 39.9 °F 37.8 °F 37.6 °F 91% 30.28 in 10.0 mi West 3.5 mph - N/A   Clear
10:35 PM 39.4 °F - 37.4 °F 93% 30.28 in 10.0 mi Calm Calm - N/A   Clear
10:55 PM 40.1 °F - 37.6 °F 91% 30.28 in 10.0 mi Calm Calm - N/A   Clear
11:00 PM 39.2 °F - 37.4 °F 93% 30.28 in 10.0 mi Calm Calm - N/A   Clear
11:15 PM 39.6 °F - 37.4 °F 92% 30.28 in 10.0 mi Calm Calm - N/A   Clear
11:35 PM 39.4 °F - 37.2 °F 92% 30.29 in 10.0 mi Calm Calm - N/A   Clear
11:55 PM 38.8 °F - 37.0 °F 93% 30.29 in 10.0 mi Calm Calm - N/A   Clear